Location: Partizánske
(48.6285°N, 18.3769°E)
Time: 12:57:39
(UTC+01:00)

ISS - Pass Details

Date: 10 December 2021
Orbit: 413 x 422 km, 51.6° (Epoch: 19 January)

Event Time Altitude Azimuth Distance (km) Brightness Sun altitude
Rises 16:22:35 0° 288° (WNW) 2,383 0.8 -5.3°
Reaches altitude 10° 16:24:57 10° 273° (W) 1,513 0.1 -5.6°
Maximum altitude 16:27:42 23° 219° (SW) 946 -0.9 -6.0°
Drops below altitude 10° 16:30:27 10° 164° (SSE) 1,501 -0.8 -6.4°
Sets 16:32:51 0° 150° (SSE) 2,381 0.0 -6.8°
